Weather History for Pagosa Springs, CO

Change the Weather History Date:

Monday, September 9, 2013

  Actual Average (KDRO) Record (KDRO)
Temperature  
Mean Temperature 63 °F 61 °F  
Max Temperature 72 °F 78 °F 90 °F (1974)
Min Temperature 54 °F 45 °F 28 °F (2001)
Degree Days  
Heating Degree Days 2 4  
Month to date heating degree days 28  
Since 1 July heating degree days 57  
Cooling Degree Days 0 0  
Month to date cooling degree days 3  
Year to date cooling degree days 240  
Growing Degree Days 13 (Base 50)    
Moisture  
Dew Point 50 °F    
Average Humidity 68    
Maximum Humidity 96    
Minimum Humidity 36    
Precipitation  
Precipitation 0.00 in 0.07 in 3.65 in (2003)
Month to date precipitation 0.56  
Year to date precipitation 10.53  
Sea Level Pressure  
Sea Level Pressure 30.20 in    
Wind  
Wind Speed 2 mph (NE)    
Max Wind Speed 16 mph    
Max Gust Speed 25 mph    
Visibility 10 miles    
Events Rain , Thunderstorm    
T = Trace of Precipitation, MM = Missing Value Source: NWS Daily Summary

Daily Weather History Graph

Daily Weather History Graph

Search for Another Location

Airport:

Trip Planner

Search our weather history database for the weather conditions in past years. The results will help you decide how hot, cold, wet, or windy it might be!

Date:

Astronomy

Sep. 09, 2013 Rise Set
Actual Time 6:45 AM MDT 7:24 PM MDT
Civil Twilight 6:19 AM MDT 7:50 PM MDT
Nautical Twilight 5:48 AM MDT 8:21 PM MDT
Astronomical Twilight 5:16 AM MDT 8:53 PM MDT
Moon 11:03 AM MDT (9/9) 9:50 PM MDT (9/9)
Length of Visible Light 13h 31m
Length of Day
12h 39m
Waxing Crescent, 19% of the Moon is Illuminated
Sep 9
Waxing Crescent
Sep 12
First Quarter
Sep 19
Full
Sep 26
Last Quarter
Oct 4
New

Hourly Weather History & Observations

Time (MDT) Temp. Dew Point Humidity Pressure Visibility Wind Dir Wind Speed Gust Speed Precip Events Conditions
12:15 AM 56.5 °F 45.1 °F 66% 30.22 in 10.0 mi Calm Calm - N/A   Overcast
12:35 AM 55.9 °F 44.2 °F 65% 30.22 in 10.0 mi Calm Calm - N/A   Mostly Cloudy
12:55 AM 54.9 °F 43.7 °F 66% 30.23 in 10.0 mi NNE 3.5 mph - N/A   Scattered Clouds
1:15 AM 56.8 °F 42.8 °F 59% 30.24 in 10.0 mi NNE 3.5 mph - N/A   Scattered Clouds
1:35 AM 57.6 °F 44.2 °F 61% 30.24 in 10.0 mi NNE 3.5 mph - N/A   Overcast
1:55 AM 58.6 °F 45.3 °F 61% 30.24 in 10.0 mi Calm Calm - N/A   Overcast
2:15 AM 59.9 °F 45.5 °F 59% 30.24 in 10.0 mi Calm Calm - N/A   Overcast
2:35 AM 59.0 °F 45.5 °F 61% 30.24 in 10.0 mi Calm Calm - N/A   Overcast
2:55 AM 57.7 °F 46.8 °F 67% 30.24 in 10.0 mi Calm Calm - N/A   Mostly Cloudy
3:15 AM 55.4 °F 46.4 °F 72% 30.23 in 10.0 mi Calm Calm - N/A   Overcast
3:35 AM 55.9 °F 46.9 °F 72% 30.24 in 10.0 mi Calm Calm - N/A   Overcast
3:55 AM 57.7 °F 46.9 °F 67% 30.24 in 10.0 mi Calm Calm - N/A   Overcast
4:15 AM 58.3 °F 46.4 °F 65% 30.24 in 10.0 mi ENE 3.5 mph - N/A   Overcast
4:35 AM 56.8 °F 46.6 °F 69% 30.23 in 10.0 mi Calm Calm - N/A Rain Light Rain
4:55 AM 57.4 °F 47.1 °F 69% 30.23 in 10.0 mi East 3.5 mph - N/A   Overcast
5:15 AM 56.8 °F 46.8 °F 69% 30.23 in 10.0 mi Calm Calm - N/A   Scattered Clouds
5:35 AM 55.8 °F 46.9 °F 72% 30.23 in 10.0 mi Calm Calm - N/A   Mostly Cloudy
5:55 AM 55.9 °F 47.7 °F 74% 30.22 in 10.0 mi Calm Calm - N/A   Overcast
6:15 AM 57.4 °F 48.4 °F 72% 30.22 in 10.0 mi Calm Calm - N/A   Overcast
6:35 AM 58.1 °F 48.9 °F 71% 30.22 in 10.0 mi Calm Calm - N/A   Overcast
6:55 AM 58.6 °F 48.9 °F 70% 30.23 in 10.0 mi Calm Calm - N/A   Overcast
7:15 AM 58.3 °F 49.3 °F 72% 30.23 in 10.0 mi Calm Calm - N/A   Overcast
7:35 AM 57.7 °F 49.8 °F 75% 30.22 in 10.0 mi North 3.5 mph - N/A Rain Rain
7:55 AM 58.1 °F 49.8 °F 74% 30.23 in 10.0 mi Calm Calm - N/A   Overcast
8:15 AM 58.3 °F 49.6 °F 73% 30.23 in 10.0 mi Calm Calm - N/A   Overcast
8:35 AM 58.6 °F 49.3 °F 71% 30.23 in 10.0 mi Calm Calm - N/A   Mostly Cloudy
8:55 AM 59.0 °F 50.0 °F 72% 30.23 in 10.0 mi Calm Calm - N/A   Scattered Clouds
9:15 AM 61.0 °F 49.6 °F 66% 30.23 in 10.0 mi Calm Calm - N/A   Mostly Cloudy
9:35 AM 63.1 °F 50.0 °F 62% 30.22 in 10.0 mi Calm Calm - N/A   Scattered Clouds
9:55 AM 64.2 °F 49.3 °F 58% 30.23 in 10.0 mi Calm Calm - N/A   Scattered Clouds
10:15 AM 66.0 °F 48.9 °F 54% 30.23 in 10.0 mi Calm Calm - N/A   Scattered Clouds
10:35 AM 66.9 °F 49.1 °F 53% 30.22 in 10.0 mi SW 3.5 mph - N/A   Clear
10:55 AM 67.6 °F 47.7 °F 49% 30.22 in 10.0 mi Calm Calm - N/A   Scattered Clouds
11:15 AM 68.9 °F 44.6 °F 42% 30.21 in 10.0 mi Calm Calm - N/A   Scattered Clouds
11:35 AM 70.0 °F 45.0 °F 41% 30.21 in 10.0 mi SSW 5.8 mph - N/A   Scattered Clouds
11:55 AM 70.2 °F 44.8 °F 40% 30.21 in 10.0 mi West 5.8 mph - N/A   Mostly Cloudy
12:15 PM 71.2 °F 45.0 °F 39% 30.20 in 10.0 mi Calm Calm - N/A Thunderstorm Mostly Cloudy
12:35 PM 72.1 °F 43.9 °F 36% 30.19 in 10.0 mi SSE 8.1 mph - N/A Thunderstorm Scattered Clouds
12:55 PM 72.3 °F 44.6 °F 37% 30.18 in 10.0 mi NW 9.2 mph - N/A   Clear
1:15 PM 70.7 °F 43.7 °F 38% 30.18 in 10.0 mi WNW 10.4 mph - N/A   Scattered Clouds
1:35 PM 68.0 °F 51.4 °F 55% 30.18 in 10.0 mi West 10.4 mph - N/A Rain , Thunderstorm Thunderstorms and Rain
1:55 PM 68.9 °F 48.9 °F 49% 30.17 in 10.0 mi WSW 6.9 mph - N/A Thunderstorm Overcast
2:15 PM 69.8 °F 47.5 °F 45% 30.16 in 10.0 mi SW 8.1 mph - N/A Thunderstorm Thunderstorm
2:35 PM 62.2 °F 50.2 °F 65% 30.17 in 7.0 mi South 4.6 mph 9.2 mph N/A Rain , Thunderstorm Thunderstorms and Rain
2:55 PM 61.7 °F 53.6 °F 75% 30.16 in 10.0 mi North 4.6 mph - N/A   Overcast
3:15 PM 62.2 °F 53.8 °F 74% 30.15 in 10.0 mi NNE 4.6 mph - N/A   Mostly Cloudy
3:35 PM 65.3 °F 53.2 °F 65% 30.14 in 10.0 mi NE 5.8 mph - N/A   Scattered Clouds
3:55 PM 67.1 °F 52.7 °F 60% 30.15 in 10.0 mi SE 3.5 mph - N/A   Scattered Clouds
4:15 PM 65.8 °F 54.0 °F 65% 30.13 in 10.0 mi Calm Calm - N/A Rain , Thunderstorm Light Thunderstorms and Rain
4:35 PM 66.0 °F 54.7 °F 67% 30.13 in 10.0 mi East 5.8 mph - N/A   Overcast
4:55 PM 66.7 °F 52.7 °F 61% 30.13 in 10.0 mi ESE 3.5 mph - N/A   Mostly Cloudy
5:15 PM 66.4 °F 53.1 °F 62% 30.12 in 10.0 mi East 3.5 mph - N/A   Overcast
5:35 PM 66.2 °F 52.2 °F 61% 30.12 in 10.0 mi Calm Calm - N/A   Scattered Clouds
5:55 PM 63.9 °F 54.0 °F 70% 30.12 in 7.0 mi Calm Calm - N/A Rain Light Rain
6:15 PM 63.0 °F 56.8 °F 80% 30.12 in 10.0 mi Calm Calm - N/A   Mostly Cloudy
6:35 PM 63.0 °F 55.8 °F 77% 30.11 in 10.0 mi Calm Calm - N/A   Scattered Clouds
6:55 PM 61.7 °F 55.8 °F 81% 30.11 in 10.0 mi Calm Calm - N/A Thunderstorm Scattered Clouds
7:15 PM 61.3 °F 56.3 °F 83% 30.12 in 10.0 mi Calm Calm - N/A Thunderstorm Mostly Cloudy
7:35 PM 63.3 °F 53.6 °F 71% 30.14 in 10.0 mi SSE 5.8 mph - N/A   Overcast
7:55 PM 58.8 °F 52.7 °F 80% 30.17 in 3.0 mi SSE 16.1 mph 25.3 mph N/A Rain , Thunderstorm Heavy Thunderstorms and Rain
8:15 PM 57.4 °F 54.0 °F 88% 30.16 in 10.0 mi Calm Calm - N/A Rain Light Rain
8:35 PM 57.4 °F 55.4 °F 93% 30.17 in 10.0 mi NE 6.9 mph - N/A   Overcast
8:55 PM 57.4 °F 55.4 °F 93% 30.19 in 10.0 mi Calm Calm - N/A   Overcast
9:15 PM 56.8 °F 55.0 °F 94% 30.19 in 10.0 mi North 4.6 mph - N/A Thunderstorm Thunderstorm
9:55 PM 56.7 °F 53.8 °F 90% 30.19 in 10.0 mi NNW 4.6 mph - N/A   Mostly Cloudy
10:15 PM 56.5 °F 53.4 °F 89% 30.19 in 10.0 mi Calm Calm - N/A   Scattered Clouds
10:35 PM 57.0 °F 53.4 °F 88% 30.19 in 10.0 mi Calm Calm - N/A   Scattered Clouds
10:55 PM 56.3 °F 54.3 °F 93% 30.19 in 10.0 mi Calm Calm - N/A   Mostly Cloudy
11:15 PM 55.8 °F 54.5 °F 96% 30.20 in 10.0 mi Calm Calm - N/A   Mostly Cloudy
11:35 PM 57.0 °F 54.1 °F 90% 30.20 in 10.0 mi Calm Calm - N/A   Mostly Cloudy
11:55 PM 56.7 °F 52.7 °F 87% 30.21 in 10.0 mi Calm Calm - N/A   Scattered Clouds